Location: Ariel
(45.9570°N, 122.5700°W)
Time: 19:37:30
(UTC-07:00)

Vanguard 3 - Pass Details

Date: 29 August 2019
Orbit: 508 x 3262 km, 33.3° (Epoch: 23 October)

Event Time Altitude Azimuth Distance (km) Brightness Sun altitude
Rises 15:37:26 0° 230° (SW) 6,506 12.6 41.8°
Reaches altitude 10° 15:42:58 10° 222° (SW) 5,065 12.3 41.0°
Maximum altitude 15:53:51 30° 169° (S) 2,709 10.4 39.4°
Drops below altitude 10° 16:00:49 10° 112° (ESE) 3,182 10.0 38.4°
Sets 16:03:25 0° 101° (E) 3,833 10.3 38.0°
